星链-34662 (STARLINK-34662)

导读

STARLINK-34662是美国SpaceX公司星链(Starlink)项目的第二代互联网卫星,于2025年7月16日发射入轨。作为星链全球卫星互联网 constellation 的一员,它配备星间激光通信终端,可支持高速太空组网,为全球偏远地区、海洋和极地提供宽带互联网接入服务,助力SpaceX构建天地一体化太空基础设施。

Basic Information
目录编号:
64799
目录名称:
STARLINK-34662
国际标识:
2025-150K
轨道中心:
EARTH
卫星名称:
星链-34662
卫星全名:
星链-34662 (STARLINK-34662)
卫星状态:
在轨 (已飞行332 天)
发射日期:
2025-07-16 UTC
国别 :
美国 (US)
星等 :
--
Orbit Information
数据来源 国际轨道数据 AOE轨道数据
星历时间 2026-06-13T23:24:43+0800
7小时前
查看轨道信息
2026-06-08T11:00:00+0800
5天前
查看轨道信息
半长轴 6950.18km 6950.216km
偏心率 0.0003278 0.0003177
轨道倾角 70.001° 70.000°
近地点辐角 268.980° 277.153°
升交点赤经 252.362° 266.272°
平近点角 91.098° 211.779°
近地点 569.764km 569.87km
远地点 574.322km 574.288km
周期 96.107分钟 96.107分钟
每日圈数 14.983344 14.983227
Detailed Information
固有亮度:
5
最大亮度:
2.5
卫星平台:
Starlink V1.0
覆盖范围:
全球
运营商:
太空探索技术公司
运营商所在国:
美国
制造商(研发单位):
太空探索技术公司
制造商所在国:
美国
使用方式:
暂无
Satellite Introduction
Starlink 计划是 SpaceX 推出的全球卫星互联网项目,通过发射低轨道卫星,为全球尤其是偏远地区提供高速、低延迟的互联网服务。自 2019 年起,Starlink 已部署数千颗卫星,旨在缩小全球数字鸿沟,推动互联网普及。该项目还为军事、航空等行业提供通信支持,带来广泛经济效益。
2D Orbit Map
3D Orbit Map
Orbit Altitude Analysis Chart
Orbit Inclination Analysis Chart
Orbit Comprehensive Analysis Chart
View Comprehensive Chart